DMSP 5D-3 F16 (USA 172)

Satellite information

Favourite Embed

Satellite Type and Status

PAYLOADIN ORBIT

Key statistics

Satellite DMSP 5D-3 F16 (USA 172) at a glance.

Uptime

8092

Days in orbit

Revolutions

≈ 14.1

Per day

Orbit

SSO

Sun Synchronous Orbit

Inclination

99.0

Latest

Satellite identification and parameters

Extended collection of information and parameters for DMSP 5D-3 F16 (USA 172).

Object identification

Identified? True

Debris? False

Object name: DMSP 5D-3 F16 (USA 172)

International designator: 2003-048A

Object number (NORAD): 28054

Object ID (CCSDS): 28054

Country: UNITED STATES OF AMERICA (US)

Current information (Y/N): Y

RCS size: LARGE

Orbital parameters

Period: 101.808 minutes

Inclination: 99.0047 deg

SMA: 7222.41 km

Apoapsis: 848.981 km

Periapsis: 839.568 km

RAAN: 3.7432 deg

Eccentricy: 0.00065159

Argument of periapsis: 322.3206 deg

Mean anomaly: 170.4275 deg

Mean motion: 14.14423935 rev/day

Mean motion (dot): 0.00000211 rev/day2

B* drag term: 0.00013413451 1/REarth

Two-line elements (TLE)

Creation date: Dec. 12, 2025, 10:14 a.m.

Reference frame: TEME

Reference center: EARTH

Epoch: Dec. 12, 2025, 6:57 a.m. UTC

TLE line 0: 0 DMSP 5D-3 F16 (USA 172)

TLE line 1: 1 28054U 03048A 25346.28981816 .00000211 00000-0 13413-3 0 9996

TLE line 2: 2 28054 99.0047 3.7432 0006516 322.3206 170.4275 14.14423935143061

Live tracking on map

Real-time ground track for satellite DMSP 5D-3 F16 (USA 172).

In-orbit conjunctions

There are no conjunctions computed for DMSP 5D-3 F16 (USA 172), at the moment. Check back to stay up to date, as we update our databases every day.

Go to all conjunctions

Associated space launch

The 16th flight of the Defense Meteorological Satellite Program Block 5D series with a main mission of cloud imagery and MW imaging/temperature/humidity sounding.

DMSP 5D-3 F16 (USA 172) was lifted into orbit during the mission ‘Titan II SLV | DMSP F-16’, on board a Titan II SLV space rocket.

The launch took place on Oct. 18, 2003, 4:17 p.m. from Space Launch Complex 4W.

For more information about the launch, click the button.

Launch to space Titan II SLV | DMSP F-16
Titan II SLV | DMSP F-16

Agency: N/A

Status: Launch Successful

Launch date: Oct. 18, 2003, 4:17 p.m. UTC

Rocket: Titan II SLV

Launch pad: Space Launch Complex 4W

Location: Vandenberg SFB, CA, USA

...

Latest news about this satellite

There are no fresh news available about this satellite. Check back as we update our databases every day.


Newsletter sign-up

Weekly statistics, charts and insights to help you stay on top of the space industry.